Regional Weather Roundup
Issued by NWS Grand Forks, ND

Home | Current Version | Previous Version | Text Only | Print | Product List | Glossary Off
Versions: 1 2 3 4 5 6 7 8 9 10 11 12 13 14 15 16 17 18 19 20 21 22 23 24 25 26 27 28 29 30 31 32 33 34 35 36 37 38 39 40 41 42 43 44 45 46 47 48 49 50

521
ASUS43 KFGF 240310
RWRFGF
PRAIRIE TO PINES  WEATHER ROUNDUP
NATIONAL WEATHER SERVICE EASTERN NORTH DAKOTA/GRAND FORKS ND
1000 PM CDT SUN JUL 23 2017

 **SATELLITE DATA USED TO AUGMENT SKY COVER AT AUTOMATED STATIONS**
 *****  WEATHER ACROSS EASTERN NORTH DAKOTA  *****

CITY           SKY/WX    TMP DP  RH WIND       PRES   REMARKS
GRAND FORKS    FAIR      67  64  90 SW5       29.97R
GRAND FRKS AFB FAIR      66  62  87 S5        29.98R
DEVILS LAKE    FAIR      68  60  75 SE5       29.99R
FARGO          MOCLDY    70  63  78 W6        29.99R
WAHPETON ARPT  FAIR      64  59  82 S3        30.01R
$$

 ***** WEATHER ACROSS CENTRAL AND WESTERN NORTH DAKOTA  *****

CITY           SKY/WX    TMP DP  RH WIND       PRES   REMARKS
BISMARCK       FAIR      71  58  63 SE10      29.96R
MINOT          FAIR      75  57  53 SE9       29.92S
JAMESTOWN      FAIR      68  59  73 SE6       29.99R
MINOT AFB      FAIR      70  58  64 SE8       29.91R
GARRISON         N/A     71  53  52 E8        29.93S
WILLISTON      FAIR      84  54  35 SE16      29.85S
DICKINSON      FAIR      75  56  51 SE13      29.93R
HETTINGER      FAIR      77  52  41 SE15      29.97R
$$

 *****  OTHER AIRPORT OBSERVATIONS IN OUR AREA  *****

CITY           SKY/WX    TMP DP  RH WIND       PRES   REMARKS
WALHALLA       NOT AVBL
GRAFTON AIRPOR FAIR      66  63  88 S5        29.99R
VALLEY CITY AR FAIR      68  68 100 SE7       30.02R
CANDO          NOT AVBL
CAVALIER APRT  FAIR      70  63  78 CALM      29.96R
GWINNER        CLEAR     64  63  94 CALM      30.01R
SHEYENNE NWR     N/A     64  63  95 S3        29.95S
ROLLA            N/A     66  61  82 S8        29.98S
 ***** THE ABOVE OBSERVATIONS ARE NON NWS ARE NOT QUALITY
       CONTROLLED AND MAY MIS-REPORT RAIN FOR SNOW...
$$

  *****  WEATHER ACROSS NORTHERN MINNESOTA  *****

CITY           SKY/WX    TMP DP  RH WIND       PRES   REMARKS
FLAG ISLAND    FAIR      72  59  64 CALM      29.97S
WARROAD        FAIR      66  63  88 CALM      29.99R
ROSEAU         FAIR      66  61  82 CALM      29.99R
HALLOCK        FAIR      66  63  88 CALM      29.97R
THF RVR FALLS  FAIR      64  58  80 S3        30.01R
BAUDETTE       FAIR      65  63  93 CALM      29.99R
WASKISH        FAIR      61  57  88 CALM      30.01R
CROOKSTON      FAIR      68  61  77 S6        30.00R
STEPHEN NDAWN    N/A     66  63  88 S3          N/A
GREENBUSH NDAW   N/A     64  61  88 S3          N/A
$$
  *****  WEATHER ACROSS CENTRAL AND WEST MINNESOTA  *****

CITY           SKY/WX    TMP DP  RH WIND       PRES   REMARKS
FOSSTON        FAIR      63  55  77 SE5       30.02R
BEMIDJI        FAIR      65  58  76 SW3       30.02R
PARK RAPIDS    FAIR      67  57  70 E5        30.02R
ELBOW LAKE     FAIR      65  61  89 CALM      30.02R
WADENA         FAIR      64  57  77 CALM      30.02R
DETROIT LAKES  FAIR      68  59  73 SE6       30.03R
MOORHEAD       FAIR      70  63  78 CALM      30.00R
FERGUS FALLS   FAIR      68  61  77 CALM      30.00R
MORRIS MN      FAIR      68  61  77 N3        30.00R
STAPLES        FAIR      63  57  82 CALM      30.02S
$$
  *****  WEATHER ELSEWHERE ACROSS MINNESOTA  *****

CITY           SKY/WX    TMP DP  RH WIND       PRES   REMARKS
DULUTH         FAIR      57  54  89 CALM      30.05R
INTRNTL FALLS  FAIR      56  54  93 E3        30.00R
ELY            FAIR      61  52  72 CALM      30.04S
CLOQUET        FAIR      59  54  82 CALM      30.04S
WHEATON        FAIR      63  59  88 CALM      30.03R
BRAINERD       FAIR      62  59  90 CALM      30.03R
HIBBING        MOCLDY    62  60  93 SE8       30.04R
ALEXANDRIA     FAIR      68  62  81 E3        30.03R
SAINT CLOUD    FAIR      64  61  90 E3        30.02R
MINNEAPOLIS    FAIR      69  57  65 NE6       30.00R
$$

  *****  WEATHER ACROSS SOUTH DAKOTA  *****

CITY           SKY/WX    TMP DP  RH WIND       PRES   REMARKS
SIOUX FALLS    FAIR      69  61  75 NE8       30.01R
BROOKINGS      FAIR      68  58  70 E7        30.03R
WATERTOWN      FAIR      66  60  81 E3        30.02R
HURON          FAIR      72  63  73 E3        30.00R
SISSETON         N/A     67  61  81 S3        30.01R
ABERDEEN       FAIR      70  60  70 E7        30.00R
MITCHELL       FAIR      70  62  76 E5        30.00R
PIERRE         FAIR      74  53  48 E10       29.95S
MOBRIDGE       FAIR      70  59  68 SE10      29.96R
RAPID CITY     FAIR      77  47  34 E10       29.96S
$$

  *****  SOME WEATHER IN NEARBY STATES *****

CITY           SKY/WX    TMP DP  RH WIND       PRES   REMARKS
GLASGOW MT     NOT AVBL
GREAT FALLS MT FAIR      82  34  17 W10       29.81R
CHEYENNE WY    FAIR      77  43  29 S12       30.16R
SCOTTSBLUFF NE FAIR      76  54  46 E7        29.99R
OMAHA NE       FAIR      73  62  68 NW5       29.96R
DES MOINES IA  FAIR      75  59  57 N10G18    29.94R
DAVENPORT IA   FAIR      68  64  87 NW6       29.91R
CHICAGO IL     FAIR      71  64  78 NW6       29.84R
EAU CLAIRE WI  CLOUDY    65  57  75 N7        29.98S
LA CROSSE WI   FAIR      68  61  78 N9        29.95R
$$

  *****  SOME NATIONAL WEATHER *****

CITY           SKY/WX    TMP DP  RH WIND       PRES   REMARKS
LA GUARDIA NY  MOCLDY    75  68  78 SE13      29.84F
RALEIGH NC     CLOUDY    72  71  97 CALM      29.88S
ATLANTA GA     MOCLDY    81  74  79 CALM      29.96R
NEW ORLEANS LA MOCLDY    79  73  82 VRB5      29.93S
OKLAHOMA CITY  MOCLDY    78  69  73 S10       29.95R
ALBUQUERQUE NM MOCLDY    78  55  44 E18G29    30.14R
SALT LAKE CITY FAIR      88  47  24 E5        29.97R
LOS ANGELES CA FAIR      68  64  87 SW9       29.85R
BOISE ID       FAIR      91  40  16 NW3       29.84S
SEATTLE WA     FAIR      72  52  49 N10       30.01F
$$

*** WEATHER ACROSS MANITOBA...SASKATCHEWAN AND ONTARIO ***
                ***ONTARIO***

CITY           SKY/WX    TMP DP  RH WIND       PRES   REMARKS
GERALDTON      PTCLDY    61  52  72 E3        29.99S
THUNDER BAY    PTCLDY    57  54  88 W3        30.00R
SIOUX LOOKOUT  MOCLDY    59  57  94 S2        29.98R
TORONTO        MOCLDY    70  57  64 E9G17     29.74F
BIG TROUT LK   PTCLDY    59  52  77 SE3       29.88F
PICKLE LAKE    NOT AVBL
DRYDEN         PTCLDY    70  54  56 SW5       29.99R
KENORA         MOCLDY    68  57  68 SW3       30.00R
$$
                *** MANITOBA***

CITY           SKY/WX    TMP DP  RH WIND       PRES   REMARKS
BRANDON        PTCLDY    70  61  73 SE5       29.93R
DAUPHIN        CLEAR     66  61  82 SE6       29.88S
ISLAND LAKE    NOT AVBL
PILOT MOUND      N/A     63  59  88 SE7         N/A
THE PAS        MOCLDY    66  63  88 SE6       29.79S
THOMPSON       MOCLDY    63  59  88 CALM      29.77F
WINNIPEG       CLEAR     68  63  83 S6        29.95R
LYNN LAKE      CLEAR     63  61  94 SW6       29.76R
CHURCHILL      LGT RAIN  64  61  88 SW7       29.70F
GILLAM         CLOUDY    66  52  59 SE5       29.77R
$$
                ***SASKATCHEWAN***

CITY           SKY/WX    TMP DP  RH WIND       PRES   REMARKS
ESTEVAN        PTCLDY    73  57  56 SE5       29.85F
KINDERSLEY     PTCLDY    75  57  53 E13       29.66F
LLOYDMINSTER   TSTM      68  61  77 NE3       29.74R
PRINCE ALBERT  PTCLDY    68  64  88 E5        29.78S
REGINA         PTCLDY    79  55  44 SE23G30   29.75F
YORKTON        CLOUDY    72  63  73 SE12      29.84S
N. BATTLEFORD  CLEAR     72  61  68 E13       29.72F
LA RONGE       NOT AVBL
SASKATOON      PTCLDY    75  63  64 E8        29.74F
SWIFT CURRENT  CLEAR     79  54  41 E10       29.74F
$$
NOTE: THESE ARE AUTOMATED STATIONS WITH LIMITED QUALITY CONTROL
      "FAIR" INDICATES FEW OR NO CLOUDS BELOW 12,000 FEET WITH NO
      SIGNIFICANT WEATHER AND/OR OBSTRUCTIONS TO VISIBILITY.
      SKY/WX - SKY CONDITION AND SIGNIFICANT WEATHER.
      TMP - AIR TEMPERATURE.    DP   - DEWPOINT TEMPERATURE.
      RH  - RELATIVE HUMIDITY.  PRES - PRESSURE.
      HX  - HEAT INDEX.         WCI  - WIND CHILL INDEX.
$




USA.gov is the U.S. government's official web portal to all federal, state and local government web resources and services.